Regional Weather Roundup
Issued by NWS Glasgow, MT

Current Version | Previous Version | Text Only | Print | Product List | Glossary On
Versions: 1 2 3 4 5 6 7 8 9 10 11 12 13 14 15 16 17 18 19 20 21 22 23 24 25 26 27 28 29 30 31 32 33 34 35 36 37 38 39 40 41 42 43 44 45 46 47 48 49 50
000
ASUS45 KGGW 280815
RWRGGW
HOURLY REGIONAL WEATHER ROUNDUP FOR NORTHEAST MONTANA
NATIONAL WEATHER SERVICE GLASGOW MONTANA
200 AM MDT THU JUL 28 2016

NOTE: "FAIR" INDICATES FEW OR NO CLOUDS BELOW 12,000 FEET WITH NO
SIGNIFICANT WEATHER AND/OR OBSTRUCTIONS TO VISISBILITY.

NORTHEAST MONTANA


CITY           SKY/WX    TMP DP  RH WIND       PRES   REMARKS
GLASGOW        CLOUDY    60  57  89 NE7       30.16S
PLENTYWOOD       N/A     56  54  93 E3          N/A
WOLF POINT     PTCLDY    61  58  90 NE5       30.16S
JORDAN           N/A     61  58  90 N5        30.17S
WINNETT          N/A     60  56  86 W3          N/A
SIDNEY         PTCLDY    60  59  96 N6        30.14F
GLENDIVE       CLOUDY    64  60  87 NE8       30.14F
MALTA            N/A     61  61 100 CALM        N/A
SCOBEY           N/A     53  42  66 CALM      30.17S
OPHEIM           N/A     59  52  77 E2        29.98F

FORT PECK REPORTS


CITY           SKY/WX    TMP DP  RH WIND       PRES   REMARKS
FORT PECK        N/A     58  57  97 NW6         N/A
THE PINES        N/A     59  56  89 N5          N/A

SOUTHEAST MONTANA


CITY           SKY/WX    TMP DP  RH WIND       PRES   REMARKS
BILLINGS       CLOUDY    66  58  75 CALM      30.21R
MILES CITY     PTCLDY    62  57  83 NE12      30.13S
BAKER          LGT RAIN  60  59  96 N10       30.16F
LIVINGSTON     CLOUDY    61  56  83 NE12      30.25S

CENTRAL MONTANA


CITY           SKY/WX    TMP DP  RH WIND       PRES   REMARKS
HAVRE          CLOUDY    59  57  93 NE5       30.16F
LEWISTOWN      NOT AVBL
GREAT FALLS    CLOUDY    59  50  72 SW3       30.22S
CUT BANK       MOCLDY    57  54  89 W3        30.19F
HELENA         MOCLDY    66  52  60 W9        30.20S
BUTTE          CLEAR     56  45  66 SE8       30.26S
BOZEMAN        CLOUDY    64  53  67 NW9       30.17S

WESTERN MONTANA


CITY           SKY/WX    TMP DP  RH WIND       PRES   REMARKS
MISSOULA       PTCLDY    68  49  50 CALM      30.13R
KALISPELL      NOT AVBL

NORTH DAKOTA


CITY           SKY/WX    TMP DP  RH WIND       PRES   REMARKS
WILLISTON      CLOUDY    65  60  84 CALM      30.16S
DICKINSON      CLEAR     57  56  96 NE5       30.12S
MINOT          CLOUDY    63  57  81 NE3       30.15S
BISMARCK       LGT RAIN  64  61  90 NE3       30.13F

SOUTHERN SASKATCHEWAN


CITY           SKY/WX    TMP DP  RH WIND       PRES   REMARKS
REGINA         CLEAR     55  52  88 SE7       30.18F
ESTEVAN        MOCLDY    55  54  94 E5        30.18S
SWIFT CURRENT  CLEAR     54  50  87 SE7       30.18F




USA.gov is the U.S. government's official web portal to all federal, state and local government web resources and services.